Weather in Tena

Ecuador     0°59′48″N   77°48′52″W
temp.,
°C
wind,
m/s
gust,
m/s
humid.,
%
clouds,
%
prec.,
mm/h
press.,
hPa
HPBL,
m
13 april, tue
tue1301:00+19wnw1199100 0.8 101438
04:00+18nw119785 0.1 101215
07:00+19nnw1195100 0.1 101527
10:00+27ese115753 0.0 1016870
13:00+30se224628 0.2 10111903
16:00+25ene1376100 0.5 1009104
19:00+20nw119879 5.0 101219
22:00+19nw1199100 4.8 101521
14 april, wed
wed1401:00+19nw1199100 10.3 101423
04:00+18nw1199100 1.4 101327
07:00+19nw1198100 2.6 101539
10:00+19nw1299100 2.2 101895
13:00+21nw129696 4.3 1015141
16:00+20se1198100 0.6 1012139
19:00+19ne1198100 0.8 101216
22:00+19wnw119698 0.0 101422
15 april, thu
thu1501:00+18nw1196100 0.0 101214
04:00+18nnw0093100 0.0 101214
07:00+19nw119188 0.1 101433
10:00+24e1169100 0.0 1015493
13:00+25se227910 1.3 1011772
16:00+24ese128880 2.6 1009517
19:00+20nw0098100 7.8 101215
22:00+20wsw0199100 5.0 101426
16 april, fri
fri1601:00+19w149993 9.7 1013149
04:00+19nw1199100 0.6 101219
07:00+19wnw1199100 2.9 101445
10:00+20w019799 0.4 101589
13:00+21nnw0191100 0.4 1012127
16:00+24ese007697 0.0 1008149
19:00+20n1193100 0.3 101115
22:00+19wnw109699 0.4 101414
17 april, sat
sat1701:00+19nw1191100 0.4 101320
04:00+19nw118893 0.0 101215
07:00+19nw1192100 0.4 101521
10:00+21nnw0188100 0.6 1016156
13:00+29sse115285 0.7 10121063
16:00+28se225461 0.0 10081429
19:00+20nnw019793 1.0 101112
22:00+20nnw1199100 2.8 101419